Location: Clinton NY
(43.0598°N, 75.3602°W)
Time: 14:50:13
(UTC-04:00)

Amateur Radio Satellites - All Passes

Search period start: 02 September 2014 14:20
Search period end: 03 September 2014 14:20
Location: Clinton NY, 43.0598°N, 75.3602°W

Satellite Date Start Highest point End Downlink Frequencies (MHz)
Time Altitude Azimuth
Oscar 16 02 Sep 14:32:08 14:36:46 33° 264° (W) 14:41:27 437.025 USB, Beacon 2401.1428
MaSat-1 02 Sep 14:34:34 14:38:19 20° 312° (NW) 14:42:08 437.345 MHz
ITAMSAT 1 02 Sep 14:35:00 14:40:08 71° 257° (WSW) 14:45:19 435.822 SSB
ISS 02 Sep 14:40:24 14:43:19 27° 18° (NNE) 14:46:14 145.800 FM
AO-7 02 Sep 14:41:29 14:47:55 26° 53° (NE) 14:54:20 29.400 - 29.500 MHz
Uribyol 2 02 Sep 14:44:21 14:49:23 55° 259° (W) 14:54:28 436.500 FM
Uosat F 02 Sep 14:56:56 14:59:14 13° 58° (ENE) 15:01:32 435.120 FM
TMSAT-1 02 Sep 14:59:19 15:04:33 66° 73° (ENE) 15:09:48 436.925 FM
AO-27 02 Sep 15:05:22 15:10:08 37° 262° (W) 15:14:56 436.795 MHz FM
Sapphire 02 Sep 15:11:48 15:12:30 10° 101° (E) 15:13:11 437.095 MHz 1200 baud AX-25 AFSK
UOSAT-12 02 Sep 15:19:51 15:22:53 17° 250° (WSW) 15:25:53 437.025 FM, 437.400 FM
PCSat 02 Sep 15:37:17 15:41:14 21° 106° (ESE) 15:45:12 145.825 MHz
AO-Echo 02 Sep 15:42:00 15:44:55 15° 269° (W) 15:47:48 ?
Gurwin Techsat 1B 02 Sep 15:50:13 15:54:58 33° 264° (W) 15:59:45 435.225 FM
JAS-1B 02 Sep 16:05:49 16:13:37 27° 268° (W) 16:20:49 435.800 - 435.900 CW/SSB
ISS 02 Sep 16:16:58 16:20:16 64° 217° (SW) 16:23:34 145.800 FM
RS-15 02 Sep 16:24:55 16:36:03 79° 54° (NE) 16:47:35 29.354 - 29.394 USB, Beacon 29.352 USB
OPAL 02 Sep 16:26:49 16:29:45 15° 92° (E) 16:32:40 ?
AO-7 02 Sep 16:31:29 16:39:51 81° 253° (WSW) 16:48:13 29.400 - 29.500 MHz
Uosat F 02 Sep 16:32:18 16:37:19 85° 256° (WSW) 16:42:21 435.120 FM
TMSAT-1 02 Sep 16:41:42 16:44:56 16° 270° (W) 16:48:11 436.925 FM
JAS-2 02 Sep 16:43:14 16:46:52 18° 61° (ENE) 16:50:20 435.800 - 435.900 CW/SSB, 435.910 FM
Sapphire 02 Sep 16:49:35 16:54:58 79° 118° (ESE) 17:00:25 437.095 MHz 1200 baud AX-25 AFSK
Hamsat 02 Sep 17:16:54 17:20:27 25° 67° (ENE) 17:24:02 145.90 MHz
PCSat 02 Sep 17:18:51 17:24:11 58° 304° (NW) 17:29:34 145.825 MHz
OPAL 02 Sep 18:03:55 18:09:09 72° 289° (WNW) 18:14:19 ?
JAS-2 02 Sep 18:25:32 18:31:32 71° 257° (WSW) 18:36:58 435.800 - 435.900 CW/SSB, 435.910 FM
AO-7 02 Sep 18:29:01 18:33:49 16° 271° (W) 18:38:38 29.400 - 29.500 MHz
Sapphire 02 Sep 18:35:06 18:39:02 20° 318° (NW) 18:43:00 437.095 MHz 1200 baud AX-25 AFSK
RS-15 02 Sep 18:38:18 18:47:20 30° 256° (WSW) 18:56:41 29.354 - 29.394 USB, Beacon 29.352 USB
HO-68 02 Sep 18:50:06 18:51:49 11° 46° (NE) 18:53:33 435.675 MHz FM
Hamsat 02 Sep 18:52:27 18:56:17 31° 264° (W) 19:00:10 145.90 MHz
PCSat 02 Sep 19:06:20 19:08:48 13° 326° (NW) 19:11:17 145.825 MHz
SO-67 02 Sep 19:10:47 19:14:12 62° 75° (ENE) 19:17:38 435.3500 MHz FM
OPAL 02 Sep 19:45:40 19:47:05 11° 307° (NW) 19:48:30 ?
STRAND 1 02 Sep 19:52:47 19:57:54 73° 103° (ESE) 20:03:00 ?
HO-68 02 Sep 20:31:05 20:37:55 52° 66° (ENE) 20:44:48 435.675 MHz FM
UKube-1 02 Sep 20:53:19 20:57:06 30° 68° (ENE) 21:00:53 145.840 MHz, 145.915 MHz
Oscar 11 02 Sep 20:56:39 20:59:53 21° 65° (ENE) 21:03:08 145.825 FM, Beacon 2401.500 USB
MaSat-1 02 Sep 21:13:21 21:16:53 21° 48° (NE) 21:20:05 437.345 MHz
Saudisat 1A 02 Sep 21:19:08 21:22:21 20° 112° (ESE) 21:25:35 436.775 MHz
FUNcube-1 02 Sep 21:31:31 21:34:29 19° 65° (ENE) 21:37:29 145.950 - 145.970 MHz USB
STRAND 1 02 Sep 21:33:31 21:36:29 16° 300° (WNW) 21:39:27 ?
KITSAT 1 02 Sep 21:51:10 21:56:48 21° 103° (ESE) 22:02:27 435.175 FM
HO-68 02 Sep 22:19:40 22:25:52 32° 264° (W) 22:32:07 435.675 MHz FM
UKube-1 02 Sep 22:29:40 22:33:17 26° 264° (W) 22:36:56 145.840 MHz, 145.915 MHz
Oscar 11 02 Sep 22:31:46 22:35:49 38° 262° (W) 22:39:55 145.825 FM, Beacon 2401.500 USB
MaSat-1 02 Sep 22:49:55 22:54:11 44° 251° (WSW) 22:57:51 437.345 MHz
Saudisat 1A 02 Sep 22:57:21 23:01:37 47° 309° (NW) 23:05:54 436.775 MHz
FUNcube-1 02 Sep 23:06:36 23:10:34 41° 262° (W) 23:14:39 145.950 - 145.970 MHz USB
KITSAT 1 02 Sep 23:43:06 23:51:13 85° 302° (WNW) 23:59:22 435.175 FM
Sapphire 02 Sep 23:54:30 23:57:47 16° 38° (NE) 00:01:02 437.095 MHz 1200 baud AX-25 AFSK
PCSat 03 Sep 00:23:00 00:27:26 25° 45° (NE) 00:31:50 145.825 MHz
Sapphire 03 Sep 01:36:41 01:42:09 76° 59° (ENE) 01:47:34 437.095 MHz 1200 baud AX-25 AFSK
KITSAT 1 03 Sep 01:41:16 01:47:49 26° 325° (NW) 01:54:24 435.175 FM
JAS-1B 03 Sep 02:01:26 02:05:00 15° 85° (E) 02:08:21 435.800 - 435.900 CW/SSB
PCSat 03 Sep 02:05:54 02:11:15 60° 244° (WSW) 02:16:33 145.825 MHz
Oscar 19 03 Sep 02:06:54 02:11:43 37° 97° (E) 02:16:29 437.125 CW, 437.150 USB
AO-Echo 03 Sep 02:08:09 02:11:14 17° 92° (E) 02:14:18 ?
SO-50 03 Sep 02:12:12 02:15:01 17° 110° (ESE) 02:17:52 436.795 FM
Gurwin Techsat 1B 03 Sep 02:27:40 02:29:23 11° 87° (E) 02:31:05 435.225 FM
Oscar 10/S400 03 Sep 02:35:48 03:42:58 41° 225° (SW) 08:53:40 145.825 - 145.975 CW/USB, Beacon 145.810 USB
Oscar 16 03 Sep 02:42:09 02:47:24 81° 104° (ESE) 02:52:35 437.025 USB, Beacon 2401.1428
ITAMSAT 1 03 Sep 02:47:05 02:51:55 38° 98° (E) 02:56:43 435.822 SSB
Uribyol 2 03 Sep 02:56:00 03:01:03 49° 100° (E) 03:06:05 436.500 FM
TMSAT-1 03 Sep 03:14:50 03:19:06 24° 93° (E) 03:23:21 436.925 FM
AO-27 03 Sep 03:16:51 03:22:03 73° 103° (ESE) 03:27:14 436.795 MHz FM
Sapphire 03 Sep 03:21:46 03:24:53 16° 256° (WSW) 03:28:00 437.095 MHz 1200 baud AX-25 AFSK
OPAL 03 Sep 03:41:55 03:46:19 31° 63° (ENE) 03:50:48 ?
KITSAT 1 03 Sep 03:43:02 03:46:41 13° 355° (N) 03:50:21 435.175 FM
AO-Echo 03 Sep 03:45:46 03:50:19 51° 288° (WNW) 03:54:54 ?
Oscar 19 03 Sep 03:46:29 03:50:55 29° 294° (WNW) 03:55:20 437.125 CW, 437.150 USB
JAS-1B 03 Sep 03:50:04 03:56:43 75° 288° (WNW) 04:02:31 435.800 - 435.900 CW/SSB
SO-50 03 Sep 03:50:40 03:55:05 58° 308° (NW) 03:59:38 436.795 FM
UOSAT-12 03 Sep 03:52:49 03:55:15 14° 108° (ESE) 03:57:43 437.025 FM, 437.400 FM
Gurwin Techsat 1B 03 Sep 04:04:42 04:10:03 89° 284° (WNW) 04:15:22 435.225 FM
Oscar 16 03 Sep 04:23:17 04:26:03 15° 301° (WNW) 04:28:49 437.025 USB, Beacon 2401.1428
ITAMSAT 1 03 Sep 04:26:52 04:31:15 28° 295° (WNW) 04:35:38 435.822 SSB
AO-7 03 Sep 04:32:32 04:39:47 32° 96° (E) 04:46:58 29.400 - 29.500 MHz
Uribyol 2 03 Sep 04:36:12 04:40:12 23° 297° (WNW) 04:44:12 436.500 FM
Uosat F 03 Sep 04:39:33 04:43:48 27° 95° (E) 04:48:00 435.120 FM
TMSAT-1 03 Sep 04:54:11 04:59:12 45° 291° (WNW) 05:04:12 436.925 FM
AO-27 03 Sep 04:57:53 05:00:58 16° 300° (WNW) 05:04:03 436.795 MHz FM
OPAL 03 Sep 05:20:28 05:25:06 35° 261° (W) 05:29:49 ?
UOSAT-12 03 Sep 05:30:11 05:34:48 71° 306° (NW) 05:39:31 437.025 FM, 437.400 FM
STRAND 1 03 Sep 05:33:12 05:36:13 16° 60° (ENE) 05:39:15 ?
SO-50 03 Sep 05:34:51 05:36:40 12° 329° (NNW) 05:38:29 436.795 FM
JAS-2 03 Sep 05:35:25 05:37:08 11° 89° (E) 05:38:53 435.800 - 435.900 CW/SSB, 435.910 FM
KITSAT 1 03 Sep 05:40:28 05:46:01 19° 26° (NNE) 05:51:32 435.175 FM
JAS-1B 03 Sep 05:43:07 05:45:57 13° 311° (NW) 05:48:38 435.800 - 435.900 CW/SSB
Saudisat 1A 03 Sep 05:44:00 05:47:41 25° 44° (NE) 05:51:20 436.775 MHz
Gurwin Techsat 1B 03 Sep 05:46:47 05:49:14 13° 302° (WNW) 05:51:42 435.225 FM
Uosat F 03 Sep 06:18:04 06:22:38 37° 292° (WNW) 06:27:12 435.120 FM
AO-7 03 Sep 06:24:52 06:32:57 59° 295° (WNW) 06:41:00 29.400 - 29.500 MHz
Hamsat 03 Sep 06:36:48 06:40:58 43° 98° (E) 06:45:03 145.90 MHz
RS-15 03 Sep 06:49:55 07:00:08 45° 110° (ESE) 07:10:10 29.354 - 29.394 USB, Beacon 29.352 USB
STRAND 1 03 Sep 07:09:45 07:14:50 72° 257° (WSW) 07:19:56 ?
UOSAT-12 03 Sep 07:13:17 07:15:49 14° 326° (NNW) 07:18:23 437.025 FM, 437.400 FM
JAS-2 03 Sep 07:17:31 07:22:51 88° 285° (WNW) 07:28:39 435.800 - 435.900 CW/SSB, 435.910 FM
Saudisat 1A 03 Sep 07:23:14 07:27:26 44° 242° (WSW) 07:31:36 436.775 MHz
KITSAT 1 03 Sep 07:35:27 07:43:25 56° 51° (NE) 07:51:18 435.175 FM
SO-67 03 Sep 08:06:29 08:09:56 66° 101° (E) 08:13:22 435.3500 MHz FM
Hamsat 03 Sep 08:13:35 08:16:36 19° 295° (WNW) 08:19:36 145.90 MHz
AO-7 03 Sep 08:19:55 08:24:03 15° 317° (NW) 08:28:10 29.400 - 29.500 MHz
ISS 03 Sep 09:00:23 09:03:09 24° 136° (SE) 09:05:55 145.800 FM
RS-15 03 Sep 09:01:22 09:12:11 58° 313° (NW) 09:22:58 29.354 - 29.394 USB, Beacon 29.352 USB
JAS-2 03 Sep 09:05:08 09:07:18 13° 302° (WNW) 09:09:31 435.800 - 435.900 CW/SSB, 435.910 FM
KITSAT 1 03 Sep 09:31:20 09:38:29 36° 251° (WSW) 09:45:37 435.175 FM
HO-68 03 Sep 09:44:59 09:51:54 49° 100° (E) 09:58:47 435.675 MHz FM
UKube-1 03 Sep 10:16:08 10:20:20 47° 100° (E) 10:24:31 145.840 MHz, 145.915 MHz
Oscar 11 03 Sep 10:18:20 10:22:21 34° 97° (E) 10:26:19 145.825 FM, Beacon 2401.500 USB
ISS 03 Sep 10:36:29 10:39:43 47° 333° (NNW) 10:42:57 145.800 FM
SO-50 03 Sep 10:41:13 10:45:12 25° 43° (NE) 10:49:13 436.795 FM
FUNcube-1 03 Sep 10:54:24 10:58:36 35° 97° (E) 11:02:49 145.950 - 145.970 MHz USB
RS-15 03 Sep 11:18:53 11:27:33 26° 344° (NNW) 11:36:19 29.354 - 29.394 USB, Beacon 29.352 USB
HO-68 03 Sep 11:33:04 11:39:23 35° 299° (WNW) 11:45:43 435.675 MHz FM
UKube-1 03 Sep 11:53:18 11:56:11 18° 297° (WNW) 11:59:03 145.840 MHz, 145.915 MHz
Oscar 11 03 Sep 11:54:54 11:58:21 23° 294° (WNW) 12:01:47 145.825 FM, Beacon 2401.500 USB
ISS 03 Sep 12:14:31 12:17:01 19° 353° (N) 12:19:32 145.800 FM
UOSAT-12 03 Sep 12:19:34 12:23:12 21° 40° (NE) 12:26:47 437.025 FM, 437.400 FM
SO-50 03 Sep 12:21:22 12:26:02 51° 241° (WSW) 12:30:43 436.795 FM
Oscar 16 03 Sep 12:23:03 12:26:27 18° 61° (ENE) 12:29:52 437.025 USB, Beacon 2401.1428
FUNcube-1 03 Sep 12:31:07 12:34:49 25° 293° (WNW) 12:38:33 145.950 - 145.970 MHz USB
MaSat-1 03 Sep 12:37:09 12:42:02 63° 113° (ESE) 12:47:08 437.345 MHz
Uribyol 2 03 Sep 12:39:37 12:41:22 12° 56° (ENE) 12:43:06 436.500 FM
JAS-1B 03 Sep 12:44:47 12:51:57 26° 58° (ENE) 12:58:27 435.800 - 435.900 CW/SSB
AO-27 03 Sep 12:59:02 13:02:17 17° 60° (ENE) 13:05:33 436.795 MHz FM
AO-Echo 03 Sep 13:21:47 13:25:53 27° 66° (ENE) 13:29:54 ?
Oscar 19 03 Sep 13:24:35 13:29:39 59° 72° (ENE) 13:34:46 437.125 CW, 437.150 USB
RS-15 03 Sep 13:35:51 13:44:49 27° 20° (NNE) 13:53:57 29.354 - 29.394 USB, Beacon 29.352 USB
AO-7 03 Sep 13:46:31 13:49:24 12° 40° (NE) 13:52:16 29.400 - 29.500 MHz
Gurwin Techsat 1B 03 Sep 13:48:38 13:52:37 22° 63° (ENE) 13:56:37 435.225 FM
ISS 03 Sep 13:51:53 13:54:35 22° 13° (NNE) 13:57:17 145.800 FM
UOSAT-12 03 Sep 13:59:05 14:03:47 64° 240° (WSW) 14:08:23 437.025 FM, 437.400 FM
Oscar 16 03 Sep 14:00:09 14:05:16 65° 258° (WSW) 14:10:27 437.025 USB, Beacon 2401.1428
ITAMSAT 1 03 Sep 14:05:59 14:11:05 64° 72° (ENE) 14:16:12 435.822 SSB
